Preview of NWS' New Version of Forecast
This preview is not operational and should not be used for support decisions.

Regional Weather Roundup (RWR)

Issued by National Weather Service (NWS)

                            
000
ASUS45 KCYS 200310
RWRWY 

WYOMING REGIONAL WEATHER ROUNDUP
NATIONAL WEATHER SERVICE CHEYENNE WY
800 PM MST TUE FEB 19 2019

NOTE:  "FAIR" INDICATES FEW OR NO CLOUDS BELOW 12,000 FEET
WITH NO SIGNIFICANT WEATHER AND/OR OBSTRUCTIONS TO VISIBILITY.

WYZ001-200400-
...YELLOWSTONE NATIONAL PARK...
  
CITY           SKY/WX    TMP DP  RH WIND       PRES   REMARKS
LK YELLOWSTONE   N/A     -3  -8  79 VRB3      29.66F                  
W YELLOWSTONE  NOT AVBL                                               

$$
WYZ002>013-054>058-071-098>099-200400-
...NORTHERN WYOMING...
  
CITY           SKY/WX    TMP DP  RH WIND       PRES   REMARKS
JACKSON        PTCLDY     1  -6  72 S6        29.74S WCI -10          
CODY           CLEAR     13   3  64 W3        29.69F                  
GREYBULL       CLEAR      7   2  80 SE5       29.76S WCI  -2          
WORLAND        CLEAR      8   3  80 E7        29.73F WCI  -3          
SHERIDAN       CLEAR      1  -5  75 S3        29.75F                  
BUFFALO        CLEAR      9   0  67 W5        29.68F WCI   1          
GILLETTE       CLEAR      7   3  84 S13       29.72F WCI  -9          
HULETT         FLURRIES  12   7  79 MISG      29.75F                  
NEWCASTLE        N/A     12   7  79 E6        29.76F WCI   3          

$$
WYZ014>020-022>026-101>103-200400-
...CENTRAL WYOMING...
  
CITY           SKY/WX    TMP DP  RH WIND       PRES   REMARKS
BIG PINEY      PTCLDY   -10 -16  74 N14       29.70S WCI -31          
PINEDALE       PTCLDY    -8 -13  77 W3        29.69F                  
DUBOIS         FAIR       5  -8  56 W20       29.61F WCI -15          
LANDER         MOCLDY    14   7  73 W6        29.66F WCI   5          
RIVERTON       CLEAR     12   6  77 NW5       29.67S WCI   4          
CASPER         PTCLDY    13   4  67 SW14      29.67F WCI  -2          
DOUGLAS        CLEAR     11   7  84 CALM      29.71F                  

$$
WYZ021-027>030-104>119-200400-
...SOUTHERN WYOMING...
  
CITY           SKY/WX    TMP DP  RH WIND       PRES   REMARKS
EVANSTON       CLOUDY     6   2  83 SW14      29.75S WCI -11          
KEMMERER       LGT SNOW   5   1  85 W13       29.70F WCI -12          
FORT BRIDGER   PTCLDY     3   0  85 E18       29.76F WCI -17          
ROCK SPRINGS   CLEAR      4   0  83 W18       29.72S WCI -16          
DIXON          CLOUDY     2  -4  76 NE3       29.78S                  
RAWLINS        CLEAR      7   1  76 SW13      29.68F WCI  -9          
SARATOGA       CLOUDY     3  -2  78 S6        29.70S WCI  -8          
LARAMIE        MOCLDY     1  -2  87 SW5       29.61F WCI  -9          
CHEYENNE       CLEAR      8   6  92 W5        29.67S WCI   0          
TORRINGTON     PTCLDY    12  10  92 E13       29.75F WCI  -3          
PINE BLUFFS    MOCLDY    10   9  92 SW5       29.73F WCI   2          

$$